Погода в Павлыше

Украина / Кировоградская область     48°55′16″N   33°20′34″E
темп.,
°C
ветер,
м/с
пор.,
м/с
влажн.,
%
обл.,
%
осадки,
мм/ч
давл.,
гПа
погр.,
м
17 апреля, сб
сб1700:00+4ююз4795100 0.8 1015738
03:00+4ююз5796100 2.0 1016667
06:00+4юз4696100 1.3 1017674
09:00+5зюз4692100 2.1 1018737
12:00+8зюз4671100 0.1 10191063
15:00+9з4765100 0.2 10191189
18:00+9з466593 0.1 1020990
21:00+7зюз1276100 0.1 102035
18 апреля, вс
вс1800:00+7зюз1178100 0.0 102012
03:00+7ююз2279100 0.0 101929
06:00+7ююз2280100 0.0 101950
09:00+9ююз346617 0.0 1019422
12:00+13юз354764 0.0 10181524
15:00+15ююз453943 0.0 10171998
18:00+14ююз3442100 0.0 10161553
21:00+11юз0153100 0.0 101715
19 апреля, пн
пн1900:00+11зюз225399 0.0 101628
03:00+10ю2357100 0.0 101659
06:00+10з226498 0.0 101535
09:00+11ссз336798 0.0 1015334
12:00+14ссз225556 0.0 1014996
15:00+13ююз1254100 0.1 10141161
18:00+14всв125198 0.0 10121054
21:00+12в377099 0.3 1012263
20 апреля, вт
вт2000:00+9всв3781100 0.0 1010269
03:00+8всв4889100 0.0 1009357
06:00+7св51192100 0.0 1005413
09:00+8св61293100 1.4 1002515
12:00+9ссв71295100 6.2 997639
15:00+9ссз71397100 19.8 993706
18:00+8сз81296100 7.8 994536
21:00+7зсз91393100 12.7 998903
21 апреля, ср
ср2100:00+8з91485100 2.3 10011102
03:00+8з81479100 2.3 1005816
06:00+8зюз61186100 0.1 1008604
09:00+8зюз5980100 0.2 1012754
12:00+10з5762100 0.1 10141256
15:00+11зсз4658100 0.1 10151238
18:00+10зюз3664100 0.0 1017380
21:00+8юз3371100 0.0 101949